Location: Newport
(44.6370°N, 124.0520°W)
Time: 09:53:27
(UTC-08:00)

N. Korean satellite - Pass Details

Date: 15 October 2017
Orbit: 461 x 513 km, 97.2° (Epoch: 14 December)

Event Time Altitude Azimuth Distance (km) Brightness Sun altitude
Rises 19:11:06 0° 165° (SSE) 2,539 10.1 -7.9°
Reaches altitude 10° 19:13:10 10° 164° (SSE) 1,655 9.2 -8.3°
Maximum altitude 19:16:44 83° 78° (ENE) 486 6.5 -8.9°
Drops below altitude 10° 19:20:15 10° 350° (N) 1,642 9.3 -9.5°
Sets 19:22:18 0° 349° (N) 2,518 10.3 -9.9°
